Location: Bergnerzell
(49.1816°N, 10.2565°E)
Time: 14:17:10
(UTC+00:00)

IDEFIX/ARIANE 42P - Pass Details

Date: 17 August 2024
Orbit: 782 x 799 km, 98.5° (Epoch: 15 September)

Event Time Altitude Azimuth Distance (km) Brightness Sun altitude
Rises 02:33:43 0° 5° (N) 3,286 6.5 -14.7°
Reaches altitude 10° 02:36:28 10° 351° (N) 2,355 5.5 -14.4°
Maximum altitude 02:40:26 23° 301° (WNW) 1,633 4.0 -13.9°
Enters shadow 02:43:13 15° 261° (W) 2,017 4.2 -13.6°
